Location: Falniów
(50.3639°N, 19.9642°E)
Time: 20:29:03
(UTC+00:00)

Timation 2 Rocket - Pass Details

Date: 18 January 2026
Orbit: 907 x 1072 km, 70.0° (Epoch: 15 February)

Event Time Altitude Azimuth Distance (km) Brightness Sun altitude
Rises 04:43:49 0° 222° (SW) 3,771 6.8 -16.7°
Reaches altitude 10° 04:46:30 10° 226° (SW) 2,800 6.1 -16.3°
Maximum altitude 04:52:57 61° 306° (NW) 1,114 4.0 -15.3°
Drops below altitude 10° 04:59:11 10° 27° (NNE) 2,698 6.5 -14.3°
Sets 05:01:43 0° 31° (NNE) 3,624 7.2 -13.9°
